• In Austria
  • List of Countries
  • For 7 days
  • Water Temperature
  • Satellite Maps
  • Weather Map
  • News
  • Weather Widgets
  • user-avatar
    Login

    Hourly Weather Murzynowo

    Today, 25 September, Tuesday

    Time Temperature Precipitation Wind Pressure Humidity
    00:00 +6°C° 0 mm 4 mps 768 mmHg 75%
    01:00 +5°C° 0 mm 3 mps 769 mmHg 80%
    02:00 +5°C° 0 mm 4 mps 769 mmHg 80%
    03:00 +5°C° 0 mm 4 mps 770 mmHg 81%
    04:00 +5°C° 0 mm 4 mps 770 mmHg 82%
    05:00 +5°C° 0 mm 4 mps 770 mmHg 81%
    06:00 +5°C° 0 mm 4 mps 771 mmHg 81%
    07:00 +5°C° 0 mm 4 mps 772 mmHg 81%
    08:00 +7°C° 0 mm 4 mps 772 mmHg 73%
    09:00 +10°C° 0 mm 4 mps 772 mmHg 65%
    10:00 +12°C° 0 mm 4 mps 773 mmHg 58%
    11:00 +12°C° 0.1 mm 5 mps 773 mmHg 54%
    12:00 +13°C° 0.1 mm 5 mps 773 mmHg 51%
    13:00 +14°C° 0 mm 4 mps 774 mmHg 47%
    14:00 +14°C° 0 mm 4 mps 774 mmHg 47%
    15:00 +13°C° 0 mm 4 mps 774 mmHg 47%
    16:00 +13°C° 0 mm 4 mps 774 mmHg 46%
    17:00 +12°C° 0 mm 3 mps 774 mmHg 52%
    18:00 +10°C° 0 mm 3 mps 774 mmHg 57%
    19:00 +9°C° 0 mm 2 mps 774 mmHg 63%
    20:00 +8°C° 0 mm 2 mps 775 mmHg 64%
    21:00 +8°C° 0 mm 2 mps 775 mmHg 66%
    22:00 +7°C° 0 mm 2 mps 775 mmHg 68%
    23:00 +7°C° 0 mm 2 mps 775 mmHg 70%

    Tomorrow, 26 September, Wednesday

    Time Temperature Precipitation Wind Pressure Humidity
    00:00 +7°C° 0 mm 2 mps 775 mmHg 71%
    01:00 +6°C° 0 mm 2 mps 775 mmHg 73%
    02:00 +6°C° 0 mm 2 mps 775 mmHg 73%
    03:00 +6°C° 0 mm 2 mps 775 mmHg 74%
    04:00 +5°C° 0 mm 3 mps 774 mmHg 74%
    05:00 +7°C° 0 mm 3 mps 774 mmHg 72%
    06:00 +6°C° 0 mm 4 mps 774 mmHg 70%
    07:00 +6°C° 0 mm 4 mps 774 mmHg 68%
    08:00 +8°C° 0 mm 4 mps 774 mmHg 63%
    09:00 +9°C° 0 mm 5 mps 773 mmHg 58%
    10:00 +11°C° 0 mm 6 mps 773 mmHg 53%
    11:00 +11°C° 0 mm 6 mps 772 mmHg 49%
    12:00 +13°C° 0 mm 6 mps 772 mmHg 45%
    13:00 +14°C° 0 mm 6 mps 771 mmHg 41%
    14:00 +14°C° 0 mm 6 mps 770 mmHg 42%
    15:00 +15°C° 0 mm 5 mps 770 mmHg 43%
    16:00 +15°C° 0 mm 5 mps 769 mmHg 44%
    17:00 +14°C° 0 mm 5 mps 769 mmHg 45%
    18:00 +14°C° 0 mm 5 mps 768 mmHg 47%
    19:00 +13°C° 0 mm 5 mps 768 mmHg 49%
    20:00 +13°C° 0 mm 5 mps 768 mmHg 49%
    21:00 +14°C° 0 mm 5 mps 768 mmHg 49%
    22:00 +14°C° 0 mm 6 mps 768 mmHg 50%
    23:00 +13°C° 0 mm 5 mps 768 mmHg 52%

    Day after tomorrow, 27 September, Thursday

    Time Temperature Precipitation Wind Pressure Humidity
    00:00 +13°C° 0 mm 5 mps 768 mmHg 55%
    01:00 +13°C° 0 mm 5 mps 768 mmHg 58%
    02:00 +12°C° 0 mm 5 mps 768 mmHg 61%
    03:00 +12°C° 0 mm 5 mps 768 mmHg 64%
    04:00 +12°C° 0 mm 5 mps 767 mmHg 67%
    05:00 +12°C° 0 mm 5 mps 767 mmHg 69%
    06:00 +12°C° 0 mm 5 mps 767 mmHg 71%
    07:00 +12°C° 0 mm 5 mps 768 mmHg 74%
    08:00 +13°C° 0 mm 5 mps 768 mmHg 71%
    09:00 +15°C° 0 mm 5 mps 768 mmHg 68%
    10:00 +17°C° 0 mm 5 mps 768 mmHg 66%
    11:00 +19°C° 0 mm 5 mps 767 mmHg 64%
    12:00 +20°C° 0 mm 5 mps 767 mmHg 61%
    13:00 +21°C° 0 mm 5 mps 766 mmHg 59%
    14:00 +21°C° 0 mm 4 mps 766 mmHg 60%
    15:00 +21°C° 0 mm 4 mps 765 mmHg 60%
    16:00 +21°C° 0 mm 4 mps 765 mmHg 61%
    17:00 +20°C° 0 mm 4 mps 764 mmHg 65%
    18:00 +19°C° 0 mm 3 mps 764 mmHg 70%
    19:00 +17°C° 0 mm 3 mps 764 mmHg 74%
    20:00 +17°C° 0 mm 3 mps 763 mmHg 74%
    21:00 +17°C° 0 mm 3 mps 763 mmHg 73%
    22:00 +15°C° 0 mm 4 mps 763 mmHg 73%
    23:00 +15°C° 0 mm 4 mps 762 mmHg 71%

    28 September, Friday

    Time Temperature Precipitation Wind Pressure Humidity
    00:00 +14°C° 0 mm 4 mps 762 mmHg 70%
    01:00 +14°C° 0 mm 4 mps 761 mmHg 68%
    02:00 +14°C° 0.1 mm 4 mps 761 mmHg 69%
    03:00 +13°C° 0.1 mm 4 mps 761 mmHg 70%
    04:00 +13°C° 0.1 mm 4 mps 761 mmHg 72%
    05:00 +13°C° 0.2 mm 4 mps 761 mmHg 75%
    06:00 +13°C° 0.2 mm 4 mps 761 mmHg 78%
    07:00 +13°C° 0.2 mm 4 mps 761 mmHg 82%
    08:00 +13°C° 0 mm 4 mps 762 mmHg 74%
    09:00 +14°C° 0 mm 4 mps 762 mmHg 67%
    10:00 +14°C° 0 mm 5 mps 763 mmHg 60%
    11:00 +15°C° 0 mm 5 mps 763 mmHg 55%
    12:00 +15°C° 0 mm 5 mps 763 mmHg 51%
    13:00 +17°C° 0 mm 4 mps 763 mmHg 46%
    14:00 +15°C° 0 mm 4 mps 763 mmHg 47%
    15:00 +15°C° 0 mm 4 mps 763 mmHg 48%
    16:00 +15°C° 0 mm 4 mps 763 mmHg 49%
    17:00 +14°C° 0 mm 3 mps 763 mmHg 54%
    18:00 +13°C° 0 mm 3 mps 763 mmHg 59%
    19:00 +12°C° 0 mm 2 mps 763 mmHg 64%
    20:00 +12°C° 0 mm 2 mps 763 mmHg 66%
    21:00 +12°C° 0 mm 2 mps 764 mmHg 68%
    22:00 +10°C° 0 mm 2 mps 764 mmHg 70%
    23:00 +10°C° 0 mm 2 mps 764 mmHg 72%

    29 September, Saturday

    Time Temperature Precipitation Wind Pressure Humidity
    00:00 +9°C° 0 mm 2 mps 764 mmHg 75%
    01:00 +8°C° 0 mm 2 mps 764 mmHg 77%
    02:00 +8°C° 0 mm 2 mps 765 mmHg 77%
    03:00 +7°C° 0 mm 2 mps 765 mmHg 78%
    04:00 +7°C° 0 mm 2 mps 765 mmHg 79%
    05:00 +7°C° 0 mm 2 mps 765 mmHg 78%
    06:00 +7°C° 0 mm 2 mps 766 mmHg 77%
    07:00 +7°C° 0 mm 2 mps 766 mmHg 77%
    08:00 +9°C° 0 mm 2 mps 766 mmHg 69%
    09:00 +12°C° 0 mm 2 mps 767 mmHg 61%
    10:00 +14°C° 0 mm 2 mps 767 mmHg 54%
    11:00 +14°C° 0 mm 2 mps 767 mmHg 50%
    12:00 +15°C° 0 mm 2 mps 767 mmHg 46%
    13:00 +16°C° 0 mm 2 mps 767 mmHg 42%
    14:00 +15°C° 0 mm 2 mps 767 mmHg 42%
    15:00 +15°C° 0 mm 2 mps 767 mmHg 42%
    16:00 +15°C° 0 mm 1 mps 767 mmHg 43%
    17:00 +14°C° 0 mm 1 mps 768 mmHg 47%
    18:00 +12°C° 0 mm 1 mps 768 mmHg 51%
    19:00 +11°C° 0 mm 1 mps 768 mmHg 55%
    20:00 +11°C° 0 mm 1 mps 768 mmHg 57%
    21:00 +9°C° 0 mm 0 mps 768 mmHg 60%
    22:00 +8°C° 0 mm 0 mps 769 mmHg 62%
    23:00 +8°C° 0 mm 0 mps 769 mmHg 63%

    30 September, Sunday

    Time Temperature Precipitation Wind Pressure Humidity
    00:00 +9°C° 0 mm 1 mps 768 mmHg 64%
    01:00 +8°C° 0 mm 1 mps 768 mmHg 66%
    02:00 +8°C° 0 mm 1 mps 768 mmHg 67%
    03:00 +8°C° 0 mm 1 mps 768 mmHg 68%
    04:00 +8°C° 0 mm 1 mps 768 mmHg 69%
    05:00 +8°C° 0 mm 1 mps 768 mmHg 69%
    06:00 +8°C° 0 mm 1 mps 768 mmHg 69%
    07:00 +8°C° 0 mm 1 mps 768 mmHg 69%
    08:00 +10°C° 0 mm 1 mps 768 mmHg 61%
    09:00 +12°C° 0 mm 1 mps 767 mmHg 54%
    10:00 +14°C° 0 mm 1 mps 767 mmHg 46%
    11:00 +15°C° 0 mm 1 mps 767 mmHg 43%
    12:00 +16°C° 0 mm 1 mps 766 mmHg 40%
    13:00 +18°C° 0 mm 1 mps 766 mmHg 37%
    14:00 +16°C° 0 mm 1 mps 765 mmHg 37%
    15:00 +16°C° 0 mm 1 mps 765 mmHg 37%
    16:00 +16°C° 0 mm 1 mps 764 mmHg 37%
    17:00 +14°C° 0 mm 1 mps 764 mmHg 41%
    18:00 +13°C° 0 mm 1 mps 764 mmHg 45%
    19:00 +11°C° 0 mm 1 mps 764 mmHg 49%
    20:00 +11°C° 0 mm 1 mps 764 mmHg 49%
    21:00 +10°C° 0 mm 1 mps 764 mmHg 50%
    22:00 +10°C° 0 mm 1 mps 764 mmHg 51%
    23:00 +9°C° 0 mm 1 mps 764 mmHg 52%
    Show more